Dewpoint
14 17 31 29 29 31 30 31 31 31 36 38 49 51 52 55 56 57 62 62 62 63 64 65 65 65 65 64 64 63 64 65 65 65 64 64 63 64 64 65 65 65 65 65
24 30 35 29 39 34 38 40 41 43 39 51 53 54 54 54 57 58 64 65 64 64 64 64 65 65 65 65 65 64 64 64 64 63 63 62 63 63 62 62 62 63 63 64
20 27 30 26 40 43 39 43 43 38 40 53 52 52 52 57 58 60 64 64 65 64 64 65 65 65 65 65 65 63 63 63 63 63 62 62 61 60 61 60 59 60 61 60
13 23 18 23 47 47 46 50 51 50 50 51 51 53 54 57 58 61 64 64 65 65 66 66 66 66 66 65 64 63 63 63 62 61 60 59 58 59 59 58 57 57 58 58
21 17 28 41 44 47 43 43 52 52 51 52 54 53 53 56 60 62 64 65 65 66 66 66 66 66 66 64 64 63 62 60 60 60 58 57 57 58 57 56 56 56 57 57
34 29 25 35 48 52 51 42 49 54 52 52 53 46 49 58 62 65 66 66 66 66 66 65 66 66 64 63 62 61 60 60 60 58 57 57 57 56 56 55 57 58 59 59
41 39 41 48 52 53 42 41 51 54 55 54 51 50 54 61 63 62 65 65 65 66 65 65 65 64 63 62 61 60 60 59 57 57 57 56 55 55 56 57 57 56 58 58
43 40 39 54 50 43 46 51 51 52 54 55 56 58 59 59 62 63 60 61 64 64 63 63 63 62 61 61 61 61 59 58 56 56 57 56 55 54 54 55 54 53 53 54
47 43 49 54 53 55 52 49 49 51 56 56 57 59 61 62 59 63 60 62 63 62 62 62 62 62 61 61 61 59 56 55 55 56 56 54 54 53 53 53 52 52 53 54
48 49 51 54 53 53 52 51 51 51 53 58 58 60 60 62 62 63 63 61 61 61 61 60 61 62 61 61 60 56 55 54 54 54 54 53 53 54 53 52 51 51 51 49
51 53 54 54 52 52 51 53 54 53 53 55 60 60 61 61 62 62 62 60 60 60 60 60 60 59 59 57 55 54 53 54 54 54 53 52 52 53 53 51 51 51 50 47
50 53 52 52 54 54 55 56 56 55 57 61 61 60 61 60 61 61 60 60 59 59 59 58 58 57 56 56 54 53 53 53 53 53 52 52 51 51 49 49 48 48 48 47
53 56 53 53 57 57 56 56 57 59 59 61 61 61 61 60 60 59 60 59 58 58 58 58 57 56 54 54 54 53 52 52 53 52 52 51 51 50 49 49 46 44 44 45
52 53 52 55 54 56 56 56 56 57 60 61 61 61 60 59 58 59 59 58 59 58 58 56 55 54 55 55 54 54 53 52 52 49 50 52 51 51 51 50 48 47 45 45
53 53 53 53 53 55 56 56 55 56 57 58 60 60 59 58 58 58 58 58 58 57 56 56 55 54 55 55 54 52 52 53 50 44 43 46 50 47 48 50 49 48 47 45
51 52 52 51 52 53 56 56 55 55 56 57 57 58 58 58 58 58 57 57 56 56 55 53 51 51 51 53 51 49 49 52 44 43 42 42 41 42 48 49 49 47 47 46
49 49 50 50 51 52 53 55 54 54 56 56 57 57 56 56 56 55 55 55 54 53 51 50 50 50 48 45 44 45 46 49 47 42 38 40 40 42 45 46 45 47 47 45
51 51 51 49 51 51 53 55 55 54 55 56 57 56 56 54 54 54 54 54 52 51 50 49 49 47 45 39 43 45 43 43 43 42 40 40 40 41 42 41 41 45 46 45
51 51 51 52 52 51 53 53 54 54 55 56 55 55 55 54 54 54 53 52 51 50 49 49 53 50 43 42 43 44 44 43 42 42 41 43 42 42 41 40 41 44 45 44
51 51 51 51 53 53 52 53 53 53 55 56 54 54 54 54 54 55 54 51 50 49 50 50 53 48 48 46 50 41 42 43 43 42 42 42 41 42 41 40 40 41 42 42
50 51 50 52 52 53 53 53 53 52 53 55 54 54 55 57 57 56 54 54 55 54 52 54 50 49 47 50 54 47 45 43 44 44 44 42 43 42 42 42 41 41 42 41
50 51 50 51 51 51 52 52 51 52 52 53 54 55 56 55 56 56 56 55 56 55 55 55 56 54 51 54 52 51 48 47 47 46 44 44 43 44 44 45 44 43 43 43
53 53 51 50 51 50 50 51 51 51 50 51 52 53 55 56 56 54 54 56 57 56 58 58 57 56 56 55 54 54 52 51 47 44 44 45 45 46 45 45 45 44 44 44
52 53 52 53 50 49 50 51 51 51 51 51 51 52 52 53 54 57 58 56 54 55 57 57 57 56 56 57 55 55 55 51 51 49 49 45 46 45 45 45 45 45 46 46
51 52 52 52 50 50 50 50 50 51 51 51 52 52 53 54 54 56 57 57 55 55 57 56 56 56 57 57 56 54 53 52 52 51 48 46 45 46 46 46 46 46 46 46
50 51 52 53 54 54 53 52 52 52 51 51 52 53 54 54 53 54 55 55 57 55 57 58 58 57 56 56 55 51 49 51 52 51 51 50 50 50 49 48 48 47 47 47
52 49 53 53 53 54 54 53 52 51 52 52 51 53 54 54 54 54 53 56 56 56 56 56 56 54 54 53 51 49 48 49 49 51 51 51 51 50 50 50 48 48 48 47
Lifted_Index
0 1 1 1 0 0 0 -0 -0 -0 -0 -0 0 -0 -1 -2 -2 -3 -3 -4 -4 -4 -4 -5 -5 -4 -4 -4 -5 -4 -3 -1 -1 -1 -1 -0 0 1 1 1 1 2 2 2
0 1 1 1 0 -0 -0 -0 -0 -0 -0 -0 -0 -0 -1 -1 -2 -3 -4 -4 -4 -4 -5 -5 -5 -3 -3 -4 -4 -3 -2 -1 -1 -0 -0 0 1 1 2 2 2 3 3 3
0 0 1 1 0 -1 -1 -0 -0 -0 -0 -0 -0 -0 -0 -0 -1 -2 -3 -4 -4 -5 -5 -5 -3 -2 -2 -3 -3 -2 -1 -0 -0 0 1 1 2 2 3 3 4 4 4 4
-0 -0 0 0 -0 -1 -1 -1 -1 -1 -1 -1 -0 -0 0 0 -1 -2 -3 -4 -4 -5 -4 -3 -2 -1 -1 -2 -2 -1 -1 -0 0 1 1 2 3 3 4 5 5 6 6 5
-0 -0 -0 -0 -1 -1 -1 -1 -1 -1 -1 -1 -0 -0 0 0 -1 -2 -3 -3 -4 -4 -4 -2 -1 -0 -1 -1 -1 -1 -0 0 0 1 2 3 4 5 5 6 6 6 6 6
-0 -0 -0 -0 -1 -1 -1 -1 -1 -1 -1 -1 -0 -0 0 -0 -1 -2 -3 -3 -3 -3 -2 -2 -1 -1 -1 -1 -1 -1 -0 0 1 2 3 4 5 6 6 6 6 6 6 6
-1 -1 -1 -1 -1 -1 -1 -1 -1 -1 -1 -1 -1 -0 -0 -1 -2 -3 -3 -3 -3 -2 -1 -1 -2 -2 -2 -1 -1 -0 0 1 2 3 4 5 6 6 6 6 6 6 6 7
-1 -1 -1 -1 -1 -1 -1 -1 -1 -2 -2 -1 -1 -1 -1 -2 -2 -3 -3 -2 -2 -2 -1 -2 -2 -2 -2 -1 -1 -0 1 2 3 5 5 6 6 6 7 7 7 7 7 7
-1 -1 -1 -1 -1 -0 -1 -1 -1 -2 -2 -1 -1 -1 -2 -3 -3 -3 -2 -2 -2 -2 -2 -2 -2 -2 -1 -1 -0 1 2 4 5 5 6 6 7 7 7 8 8 8 8 8
-1 -1 -1 -1 -1 -1 -1 -1 -1 -1 -2 -2 -1 -2 -2 -3 -3 -3 -3 -3 -3 -2 -2 -3 -2 -2 -1 0 1 3 4 5 5 5 6 6 7 7 7 8 8 9 9 10
-1 -1 -1 -1 -1 -1 -1 -1 -1 -2 -2 -2 -2 -2 -2 -3 -3 -3 -3 -3 -3 -3 -3 -3 -2 -1 -0 1 3 5 5 5 5 5 6 7 7 7 7 7 8 9 10 10
-1 -1 -1 -1 -1 -1 -1 -1 -1 -2 -2 -2 -3 -3 -3 -3 -3 -4 -3 -3 -3 -3 -3 -3 -2 -1 1 3 5 5 5 5 5 6 6 7 7 7 7 7 8 8 10 10
-2 -1 -1 -1 -1 -1 -1 -1 -1 -2 -3 -3 -3 -3 -3 -3 -3 -3 -3 -3 -3 -3 -3 -2 -1 -0 2 4 5 5 5 6 6 6 6 7 7 7 7 7 7 8 9 10
-1 -1 -1 -1 -1 -1 -0 -0 -1 -2 -2 -3 -4 -4 -3 -3 -3 -3 -3 -3 -3 -2 -2 -1 -0 1 3 4 5 5 5 6 6 7 7 7 7 7 7 7 7 8 9 10
-1 -0 -0 -0 0 1 1 1 0 -0 -1 -3 -3 -3 -3 -3 -3 -3 -2 -2 -2 -2 -1 -1 1 3 4 5 5 5 5 6 7 8 8 7 7 7 7 7 7 7 9 9
1 2 2 2 3 3 2 2 2 1 0 -1 -2 -3 -3 -2 -2 -2 -2 -2 -1 -1 -1 1 3 4 5 5 5 5 5 6 7 8 8 8 8 8 8 7 7 8 9 9
3 4 4 4 4 4 4 3 3 3 2 0 -1 -2 -2 -2 -2 -2 -1 -1 -1 -0 1 3 5 6 7 7 6 6 6 6 7 8 8 9 9 9 8 7 8 8 9 9
4 4 5 5 5 5 5 4 4 3 2 1 -0 -1 -2 -2 -2 -1 -1 -1 -0 1 3 5 6 7 8 7 7 7 7 7 8 8 9 9 9 9 9 9 9 9 9 9
4 4 4 4 5 5 5 5 5 4 2 1 -0 -1 -2 -2 -1 -1 -1 0 1 3 4 6 7 7 8 7 7 7 7 8 8 8 8 8 8 9 9 9 9 9 9 9
3 3 3 4 4 4 5 5 5 4 2 1 -0 -1 -1 -1 -1 -1 -0 1 2 4 4 5 6 6 6 6 6 7 7 8 8 8 7 7 8 8 8 8 8 8 8 8
2 2 2 2 3 4 4 5 5 4 3 2 1 0 -0 -1 -0 -0 0 1 2 3 4 4 4 4 5 5 5 5 6 6 6 6 6 7 7 7 8 8 7 7 7 7
1 1 1 2 2 3 3 4 4 4 4 3 2 2 1 0 0 1 1 2 2 3 3 3 3 3 3 3 4 4 4 4 4 4 5 6 7 7 7 7 7 7 7 6
1 1 1 1 1 2 2 3 3 3 4 4 3 3 2 2 1 1 2 2 2 2 2 2 2 2 2 2 3 3 3 3 3 3 4 5 6 6 6 6 6 6 6 6
1 1 0 0 0 1 1 1 1 2 2 3 3 3 3 3 2 2 2 2 2 2 2 2 2 2 2 2 2 2 2 2 2 3 3 4 4 5 5 5 5 5 5 5
1 0 0 -0 -0 -0 0 -0 0 0 1 1 2 2 3 3 3 3 2 2 2 2 2 2 2 2 2 2 2 2 3 3 3 3 2 2 3 4 4 4 4 4 4 4
0 0 -0 -1 -1 -1 -1 -1 -0 0 0 0 1 1 1 2 2 2 2 2 2 1 1 2 2 2 2 2 2 2 3 4 4 3 2 2 2 3 3 3 3 3 3 3
-0 -0 -1 -1 -1 -1 -1 -1 -0 -0 0 0 0 0 1 1 1 1 2 1 1 1 1 1 1 2 2 2 2 2 4 4 4 3 3 3 2 2 2 2 2 3 3 3